Find Starlink 33723

NORAD ID: 63593 Int'l Des: 2025-076 Owner: SPXS Country: US Constellation: starlink operational
LEOCIRCULAR

Live Position

Loading 3D Globe...

About Starlink 33723

Description loading...

Upcoming Passes

Passes for default location (London). Set your location on the main map for personalized predictions.

Altitude History

Loading altitude history...

Two-Line Element Set

1 63593U 25076AA 26106.42696892 .00011400 00000-0 42292-3 0 9995
2 63593 43.0002 108.4110 0001234 272.8712 87.1998 15.27596849 57607
Epoch: Apr 16, 2026 • Age: 18 hours

Current Status

Altitude 483.5 km
Velocity 7.63 km/s
Sub-Earth Point 25.68°N, 13.78°W
Launch Date Apr 14, 2025
Age 1 years
Type internet

Technical Details

Classification Payload
Mass 575.00 kg
Dry Mass 530.00 kg
Total Mass 575.00 kg
Length 0.30 m
Diameter 4.10 m
Span 29.00 m
Shape Box + pan
Manufacturer SPXS
Bus Type Starlink V2MO
Phase Status In Orbit
Owner/State SPXS/US

Most Searched